Location: Silverdale
(47.6506°N, 122.6941°W)
Time: 04:23:38
(UTC+00:00)

Courier 1B Rocket - Pass Details

Date: 03 October 2022
Orbit: 920 x 1202 km, 28.3° (Epoch: 28 November)

Event Time Altitude Azimuth Distance (km) Brightness Sun altitude
Rises 03:24:46 0° 216° (SW) 3,710 8.4 -17.1°
Reaches altitude 10° 03:30:24 10° 179° (S) 2,687 7.1 -18.0°
Maximum altitude 03:31:27 10° 169° (S) 2,646 7.0 -18.2°
Drops below altitude 10° 03:32:30 10° 160° (SSE) 2,664 7.0 -18.3°
Enters shadow 03:32:32 10° 159° (SSE) 2,666 7.0 -18.4°
